Tracking 22458 objects as of 2-Mar-2021
HD Live streaming from Space Station
objects crossing your sky now

CZ-4 DEB

Track CZ-4 DEB now!
10-day predictions


NORAD ID: 20903
Int'l Code: 1990-081BP
Perigee: 768.4 km
Apogee: 851.4 km
Inclination: 98.5 °
Period: 100.9 minutes
Semi major axis: 7180 km
RCS: 0.005 m2 (small)
Launch date: September 3, 1990
Source: People's Republic of China (PRC)
Launch site: Taiyaun Space Center, China (TSC)

Note: This is SATELLITE DEBRIS
aabbcc
Your satellite tracking list
Your tracking list is empty




NASA's NSSDC Master Catalog

Two Line Element Set (TLE):
1 20903U 90081BP  21060.07466021  .00000114  00000-0  63820-4 0  9996
2 20903  98.5365  97.0032 0057792  10.0579  17.1539 14.26703937578148
Source of the keplerian elements: AFSPC